Location: CCZU
(31.6840°N, 119.9550°E)
Time: 15:28:21
(UTC+08:00)

Hubble Space Telescope - Pass Details

Date: 29 September 2022
Orbit: 530 x 534 km, 28.5° (Epoch: 04 December)

Event Time Altitude Azimuth Distance (km) Brightness Sun altitude
Rises 19:25:15 0° 267° (W) 2,652 5.7 -21.4°
Reaches altitude 10° 19:27:32 10° 262° (W) 1,762 4.4 -21.9°
Enters shadow 19:31:21 50° 194° (SSW) 674 1.2 -22.6°
